Location: Campillo
(40.8621°N, 4.2488°W)
Time: 20:46:46
(UTC+00:00)

X-37B - Pass Details

Date: 07 August 2021
Orbit: 381 x 393 km, 45.0° (Epoch: 29 August)

Event Time Altitude Azimuth Distance (km) Brightness Sun altitude
Exits shadow 02:33:16 23° 58° (ENE) 863 2.9 -25.3°
Drops below altitude 10° 02:34:38 10° 65° (ENE) 1,397 4.2 -25.1°
Sets 02:36:43 0° 69° (ENE) 2,252 5.3 -24.9°
